Kenai, AK

6:10 PM AKDT on August 21, 2017 (GMT -0800)
Kenai Municipal

Weather History for PAEN - September, 2013

Change the Weather History Date:

Friday, September 13, 2013

  Actual Average Record
Temperature  
Mean Temperature 54 °F -  
Max Temperature 61 °F 55 °F 68 °F (2010)
Min Temperature 48 °F 41 °F 26 °F (2004)
Degree Days  
Heating Degree Days 11    
Growing Degree Days 4 (Base 50)    
Moisture  
Dew Point 48 °F    
Average Humidity 85    
Maximum Humidity 97    
Minimum Humidity 57    
Precipitation  
Precipitation 0.05 in - - ()
Sea Level Pressure  
Sea Level Pressure 29.90 in    
Wind  
Wind Speed 12 mph (NNE)    
Max Wind Speed 17 mph    
Max Gust Speed 24 mph    
Visibility 10 miles    
Events Rain    
Averages and records for this station are not official NWS values.
T = Trace of Precipitation, MM = Missing Value Source: NWS Daily Summary

Daily Weather History Graph

Daily Weather History Graph

Search for Another Location

Airport or City:

Trip Planner

Search our weather history database for the weather conditions in past years. The results will help you decide how hot, cold, wet, or windy it might be!

Date:

Astronomy

Sep. 13, 2013 Rise Set
Actual Time 7:28 AM AKDT 8:31 PM AKDT
Civil Twilight 6:45 AM AKDT 9:14 PM AKDT
Nautical Twilight 5:51 AM AKDT 10:07 PM AKDT
Astronomical Twilight 4:49 AM AKDT 11:09 PM AKDT
Moon 5:39 PM AKDT (9/13) No Moon Set
Length of Visible Light 14h 29m
Length of Day
13h 02m
Waxing Gibbous, 63% of the Moon is Illuminated
Sep 13
Waxing Gibbous
Sep 19
Full
Sep 26
Last Quarter
Oct 4
New
Oct 11
First Quarter

Hourly Weather History & Observations

Time (AKDT) Temp. Dew Point Humidity Pressure Visibility Wind Dir Wind Speed Gust Speed Precip Events Conditions
12:53 AM 48.0 °F 46.0 °F 93% 29.90 in 10.0 mi North 8.1 mph - 0.00 in   Overcast
1:53 AM 48.9 °F 46.0 °F 90% 29.90 in 10.0 mi NNE 11.5 mph - N/A   Overcast
2:53 AM 48.9 °F 48.0 °F 97% 29.88 in 10.0 mi North 9.2 mph - 0.01 in Rain Light Rain
3:53 AM 48.0 °F 46.9 °F 96% 29.88 in 10.0 mi North 9.2 mph - 0.02 in Rain Light Rain
4:53 AM 48.9 °F 46.0 °F 90% 29.87 in 10.0 mi NNE 10.4 mph - 0.00 in   Overcast
5:53 AM 48.9 °F 46.9 °F 93% 29.87 in 10.0 mi NNE 13.8 mph - 0.01 in   Overcast
6:53 AM 48.9 °F 46.9 °F 93% 29.86 in 10.0 mi NNE 15.0 mph - N/A   Overcast
7:53 AM 48.0 °F 46.9 °F 96% 29.87 in 10.0 mi NNE 13.8 mph - N/A   Mostly Cloudy
8:53 AM 50.0 °F 46.9 °F 89% 29.88 in 10.0 mi NNE 12.7 mph 21.9 mph N/A   Mostly Cloudy
9:53 AM 51.1 °F 46.9 °F 86% 29.88 in 10.0 mi NNE 15.0 mph - N/A   Overcast
10:53 AM 53.1 °F 48.0 °F 83% 29.89 in 10.0 mi NNE 17.3 mph - N/A   Overcast
11:53 AM 55.9 °F 48.0 °F 75% 29.89 in 10.0 mi NNE 17.3 mph - N/A   Mostly Cloudy
12:53 PM 57.9 °F 48.9 °F 72% 29.90 in 10.0 mi NNE 17.3 mph - N/A   Mostly Cloudy
1:53 PM 57.0 °F 48.0 °F 72% 29.90 in 10.0 mi NNE 13.8 mph - N/A   Overcast
2:53 PM 60.1 °F 45.0 °F 57% 29.90 in 10.0 mi NE 12.7 mph - N/A   Overcast
3:53 PM 57.9 °F 48.0 °F 70% 29.89 in 10.0 mi North 16.1 mph - N/A   Overcast
4:53 PM 55.0 °F 48.9 °F 80% 29.90 in 10.0 mi North 17.3 mph - 0.00 in Rain Light Rain
5:53 PM 54.0 °F 48.0 °F 80% 29.90 in 10.0 mi North 15.0 mph - 0.00 in   Overcast
6:53 PM 54.0 °F 48.0 °F 80% 29.91 in 10.0 mi North 17.3 mph 24.2 mph N/A   Overcast
7:53 PM 53.1 °F 48.0 °F 83% 29.91 in 10.0 mi NNE 15.0 mph - N/A   Partly Cloudy
8:53 PM 51.1 °F 48.0 °F 89% 29.92 in 10.0 mi NNE 15.0 mph - N/A   Clear
9:53 PM 51.1 °F 48.0 °F 89% 29.93 in 10.0 mi North 13.8 mph - N/A   Mostly Cloudy
10:53 PM 52.0 °F 48.9 °F 89% 29.93 in 10.0 mi NNE 11.5 mph - N/A   Overcast
11:53 PM 51.1 °F 50.0 °F 96% 29.94 in 10.0 mi North 10.4 mph - 0.01 in   Overcast